Theta_e
317 317 317 316 318 322 323 323 327 329 330 324 321 324 318 322 324 319 321 320 319 320 320 321 320 321 322 326 326 328 329 331 331 328 335 338 333 333 334 332 332 331 330 330 331 333 334 335 334 334 334 334 334 333 333 332 327 322 321 322 321 319 316 316 316 315 313 311 309 308 309 313 316 319 325 321 318 329 333 333 333 332 331 330 329 325 323 322 318 314 313 313 313 313 313 314 313
317 317 316 317 320 324 323 325 333 331 330 322 319 324 318 324 324 320 325 321 321 320 321 323 322 324 323 324 325 327 331 332 331 331 336 335 333 334 333 333 332 331 330 330 332 333 334 334 333 333 333 333 333 332 332 330 325 322 321 322 321 319 316 316 316 316 314 313 311 309 310 314 317 321 324 320 316 324 329 329 328 327 325 323 323 321 318 314 311 309 310 311 312 312 313 313 314
317 317 316 319 323 325 324 327 333 330 328 323 319 322 322 326 325 324 325 319 320 320 321 322 322 324 323 327 329 328 333 335 334 334 337 335 333 334 334 334 332 331 330 331 332 333 333 333 333 333 333 333 332 332 331 328 325 322 322 322 321 319 317 317 315 316 315 313 313 310 310 312 317 322 323 322 322 324 326 328 327 324 319 316 317 315 310 308 308 309 310 311 311 312 313 313 314
316 317 316 320 325 326 331 332 335 331 323 322 318 319 325 327 326 323 320 318 320 320 321 321 321 322 325 333 331 331 335 336 336 335 336 335 334 334 334 333 333 331 331 331 331 332 333 332 332 332 332 332 332 332 331 328 325 322 321 323 321 319 318 318 316 316 315 314 314 312 310 310 318 325 323 324 326 326 328 329 327 322 316 312 311 309 307 308 308 309 310 311 311 312 313 314 315
316 316 316 319 325 326 330 329 334 334 321 323 320 319 326 325 324 319 318 320 319 320 320 320 322 323 327 331 329 332 335 335 336 335 334 335 335 334 334 334 333 331 331 331 331 332 332 332 332 331 332 332 333 332 330 328 325 322 321 323 322 320 319 319 318 316 315 315 315 314 312 310 318 324 322 324 327 327 329 329 326 320 313 309 308 308 308 308 309 310 311 311 312 314 315 314 314
316 316 317 319 323 321 328 324 323 328 323 327 325 322 325 320 320 318 318 320 318 320 321 319 320 324 328 330 330 330 331 332 334 334 334 336 336 334 335 335 333 332 331 331 332 332 332 331 331 330 331 332 333 331 328 326 324 322 321 324 323 321 319 320 319 317 316 315 315 314 314 312 316 320 317 320 323 324 324 324 323 317 310 308 307 308 308 309 311 311 311 311 312 315 316 313 313
317 319 319 322 323 320 331 329 320 324 320 323 325 324 322 317 318 317 318 319 319 319 320 321 319 323 328 330 331 330 330 328 329 333 334 336 336 335 335 335 334 333 331 331 332 332 332 332 331 329 328 330 332 331 328 325 322 321 322 325 325 323 320 320 320 318 317 315 315 314 313 315 316 315 316 318 319 318 320 322 322 316 309 308 308 308 308 310 311 310 310 311 312 312 313 313 313
319 321 322 327 329 326 332 328 323 326 318 317 321 322 319 316 317 317 318 318 319 318 318 321 321 324 326 327 330 332 332 328 329 332 334 335 336 336 335 334 334 333 331 331 332 332 332 332 332 330 328 329 329 329 327 324 321 321 322 324 326 326 322 320 319 319 318 315 315 314 313 316 315 312 314 319 320 320 323 326 326 319 309 308 308 307 308 310 311 311 310 311 311 311 312 313 314
319 322 321 324 330 333 330 321 319 322 318 318 319 319 318 317 317 316 317 316 318 316 317 320 320 323 324 326 332 334 333 331 332 332 334 335 335 336 334 333 333 332 331 332 332 331 332 331 332 332 330 329 327 327 325 323 321 321 322 324 326 326 323 320 318 319 319 316 315 314 312 314 314 311 312 316 322 325 326 327 327 320 310 307 307 307 308 310 312 312 310 310 311 312 313 313 313
320 321 319 324 332 331 323 318 321 320 318 319 318 318 317 317 317 316 317 317 317 316 317 319 319 322 324 328 331 334 335 334 333 333 334 333 335 335 331 332 333 331 331 332 332 331 331 331 331 332 331 329 326 325 323 322 321 321 323 324 326 326 323 320 318 318 319 317 315 314 313 312 312 311 310 312 319 324 325 325 325 320 312 307 306 307 308 310 312 311 310 311 311 311 312 313 314
321 319 319 328 331 325 321 322 323 322 318 317 317 318 318 317 317 316 317 317 317 317 318 317 320 322 323 327 328 331 335 334 333 333 334 333 334 334 330 332 333 332 331 331 332 332 331 330 331 332 331 330 327 325 324 322 322 322 323 324 325 326 324 321 318 317 318 317 316 315 313 312 311 310 309 309 314 320 321 321 319 317 312 308 305 306 308 309 310 309 310 310 310 311 312 313 315
320 322 330 330 326 323 325 325 321 321 318 317 318 317 318 317 317 315 317 318 317 318 317 317 319 322 323 326 326 328 333 334 332 332 334 334 333 333 332 332 333 333 333 332 332 333 332 330 330 331 331 331 328 326 325 323 323 322 323 324 325 326 325 322 318 317 316 316 315 315 315 313 311 310 308 307 309 315 316 313 313 313 310 306 305 306 307 307 307 308 309 309 310 310 311 312 314
321 325 333 326 325 326 324 323 321 321 318 318 317 316 318 316 317 316 317 318 317 317 316 317 318 321 325 325 326 327 331 333 332 333 334 334 333 334 333 333 334 334 335 334 334 334 334 332 330 331 331 331 330 328 326 325 324 323 323 324 326 327 326 324 319 318 317 316 315 315 316 315 313 310 309 307 306 310 310 308 308 308 306 306 305 305 305 305 305 306 307 309 310 310 311 312 313
322 323 329 323 324 326 324 323 320 320 321 322 318 315 318 316 317 317 317 318 316 316 316 317 317 321 326 327 329 325 326 330 332 334 334 335 334 334 333 333 335 335 337 336 335 335 335 333 331 331 331 332 332 330 328 327 326 325 325 324 325 327 327 326 321 319 318 316 316 316 317 317 315 312 310 309 307 306 306 306 306 306 305 305 305 305 306 307 307 308 309 310 311 312 313 314 314
322 321 330 327 323 323 323 322 321 323 323 321 318 316 317 316 317 316 317 318 317 316 316 317 317 319 324 329 330 321 318 323 330 334 334 335 335 335 333 332 335 336 337 337 336 335 335 335 332 332 332 332 332 332 331 330 329 328 327 327 327 328 328 328 324 320 318 317 316 316 317 318 317 315 311 310 308 306 305 305 305 305 305 306 307 309 311 312 312 312 312 313 313 313 313 314 314
321 321 328 325 320 319 319 320 321 324 321 317 317 317 317 315 316 315 316 317 317 316 315 316 316 317 318 322 322 316 314 318 328 334 334 335 336 335 333 333 335 335 337 337 336 335 335 335 333 332 332 332 332 332 332 331 331 330 330 329 330 330 329 328 326 322 320 319 317 316 317 318 318 317 313 311 310 309 306 306 306 307 308 310 313 315 315 315 315 315 315 314 314 314 314 314 313
319 323 330 323 321 320 318 320 320 322 321 317 316 316 317 316 316 316 316 317 317 316 316 315 315 317 318 319 318 315 314 316 326 334 335 336 336 335 334 335 335 334 336 336 336 335 335 335 334 333 332 333 332 332 332 332 332 331 331 331 331 331 330 329 328 326 323 320 319 318 317 317 319 319 316 313 313 312 310 308 309 311 313 315 317 317 317 317 317 317 316 316 316 316 315 314 314
319 329 332 325 326 321 318 321 318 319 321 316 315 316 316 316 316 316 316 316 316 316 316 315 316 318 318 318 317 315 313 315 322 330 333 334 335 334 334 334 333 331 333 334 335 335 334 334 334 334 333 333 332 333 332 332 332 332 332 331 331 331 331 330 329 328 326 323 321 320 319 317 318 319 319 316 316 316 314 312 312 315 316 318 318 318 318 318 318 318 318 317 317 317 316 315 315
320 326 327 331 334 320 314 317 314 316 319 316 316 316 316 316 315 315 316 315 315 316 316 316 316 316 316 317 318 317 314 314 318 325 329 330 331 332 332 331 330 329 330 331 331 332 332 333 333 334 334 333 333 333 333 333 332 333 332 332 332 332 332 331 330 329 328 326 323 322 321 320 318 318 319 319 318 318 318 316 316 317 318 318 319 319 319 319 319 319 319 319 319 318 317 316 316
318 322 325 331 328 317 314 315 314 316 317 315 315 315 315 315 315 316 315 314 314 316 316 316 317 315 315 317 318 318 317 314 316 320 323 324 326 327 326 326 325 325 325 326 326 327 329 331 332 333 333 334 334 333 333 333 333 333 333 333 332 332 332 332 332 331 329 327 326 324 322 323 321 318 319 320 320 319 320 319 318 318 318 319 319 320 320 320 319 319 319 319 319 319 318 317 316
317 324 331 325 317 317 317 315 316 316 315 316 315 315 315 315 316 315 314 315 314 314 315 316 317 315 314 316 317 318 319 317 316 317 319 320 322 322 321 320 319 319 321 324 324 324 325 327 329 331 332 333 334 334 334 333 333 333 333 333 333 333 333 333 332 332 331 329 327 326 324 324 324 323 320 319 320 320 320 321 321 320 319 319 319 320 320 320 320 320 320 319 319 319 318 318 317
316 318 322 317 314 317 317 315 317 316 316 316 314 315 316 315 315 314 314 316 316 315 315 315 315 315 315 315 316 316 318 319 317 316 316 316 317 318 318 318 319 319 322 323 322 322 323 324 326 328 330 331 332 333 333 334 333 333 333 333 334 334 333 333 333 332 332 331 329 328 327 325 325 326 324 320 319 320 321 321 321 321 321 320 320 320 320 320 320 320 320 320 320 320 319 318 317
320 316 314 315 315 317 316 315 316 315 316 315 314 315 315 315 315 315 313 315 316 315 316 315 315 315 315 315 315 315 316 316 317 316 314 314 314 315 315 316 316 317 319 319 319 320 321 322 323 326 328 328 329 330 332 334 334 333 333 333 334 335 334 333 333 333 332 332 331 330 329 328 326 326 326 323 321 320 321 321 321 322 322 322 321 321 321 321 320 320 320 320 320 320 319 318 317
321 318 314 315 315 316 316 315 316 316 316 315 315 315 315 315 316 315 314 315 315 316 317 316 316 315 315 316 315 315 315 315 315 315 315 315 315 314 314 314 314 315 315 316 316 317 318 319 320 323 325 325 325 326 328 331 332 333 332 333 334 335 335 334 333 333 333 332 332 332 330 329 329 327 327 326 324 322 321 321 321 321 321 322 322 322 322 321 321 321 320 320 320 320 320 319 318
317 317 314 315 315 315 315 315 315 316 316 315 315 315 315 315 315 314 315 316 316 316 317 316 317 316 315 316 315 315 315 315 315 315 315 315 315 315 315 314 314 314 314 315 315 315 315 316 318 319 321 323 323 323 325 327 330 331 331 331 332 334 335 334 333 333 333 333 332 333 332 331 330 329 328 327 327 325 324 323 321 321 321 322 322 323 323 323 322 322 321 320 320 320 320 319 318
314 315 315 314 314 315 315 314 315 315 315 315 315 315 315 315 315 316 316 316 316 316 317 316 316 316 316 316 316 316 315 315 315 315 315 315 315 315 314 314 314 314 314 314 314 314 315 314 315 316 318 320 322 323 323 325 327 329 329 329 330 332 333 333 333 333 333 332 332 332 333 332 331 330 329 328 327 327 326 326 324 323 322 322 322 322 322 323 323 323 323 322 321 320 320 319 319
314 314 315 314 314 314 314 315 314 315 315 315 316 316 315 314 315 318 317 316 316 316 316 316 316 316 317 317 316 316 315 316 316 315 315 315 315 315 315 315 315 315 314 314 314 314 314 314 314 314 315 317 320 321 322 323 325 327 327 327 328 330 331 332 332 332 332 331 331 332 332 332 332 331 330 329 328 328 327 327 326 325 323 323 323 322 322 323 323 324 324 323 322 321 320 319 319
315 315 315 314 313 314 314 315 314 315 315 314 315 315 314 315 316 317 316 316 317 316 316 316 316 316 316 316 316 316 316 316 315 315 315 315 315 315 315 315 315 315 315 315 315 314 314 314 314 314 314 315 317 318 319 320 321 323 325 326 327 328 330 331 331 331 330 330 330 331 331 331 331 330 330 329 330 329 328 328 327 326 326 325 324 323 323 322 323 323 323 323 322 322 321 320 319
315 317 318 316 317 318 315 314 314 315 315 315 315 314 315 316 317 317 315 316 317 316 316 316 316 316 316 316 316 316 316 315 316 315 315 316 316 316 315 316 315 315 315 316 315 315 315 315 314 314 314 314 315 315 316 317 318 320 322 323 325 327 328 330 331 331 330 330 330 330 330 331 331 330 329 329 329 329 329 329 328 327 327 326 325 324 323 323 323 323 324 324 323 323 322 321 320
316 315 318 320 320 321 315 312 315 315 315 315 313 314 319 320 315 315 315 315 316 316 316 316 316 316 316 316 316 316 316 315 316 315 316 316 315 316 316 316 316 316 315 315 315 315 315 315 315 315 315 314 314 314 315 315 316 317 319 320 321 324 327 328 329 330 330 330 331 331 331 331 331 330 329 329 328 329 329 329 329 328 327 326 326 325 324 324 324 324 324 324 324 324 323 322 320
318 313 319 323 317 322 319 312 315 315 315 315 313 315 321 322 314 314 316 315 315 316 316 316 316 316 316 316 316 316 316 316 316 315 316 316 316 316 316 316 316 316 316 316 316 316 315 316 315 315 315 315 315 315 314 314 315 315 316 318 318 320 322 324 326 328 329 330 331 331 331 330 331 331 330 330 329 328 328 329 328 328 328 327 326 326 325 324 324 324 324 324 324 324 323 322 321
322 315 321 323 315 325 325 313 314 316 315 314 314 316 320 320 315 315 316 315 315 315 316 316 316 316 316 317 316 316 316 316 316 316 316 316 316 316 316 316 316 316 316 316 316 316 316 316 315 315 315 315 315 315 315 315 315 315 316 316 316 316 318 320 321 322 325 329 331 331 330 330 330 330 330 330 330 330 328 327 327 327 327 326 325 325 325 325 325 325 324 324 323 323 323 323 322
327 318 321 323 317 322 323 314 312 314 315 314 314 316 320 318 315 316 316 315 315 315 316 316 316 317 316 316 317 316 316 316 317 317 317 317 317 317 317 317 317 317 316 316 316 316 316 316 315 316 315 315 315 315 315 315 315 316 316 316 316 316 316 318 318 318 320 325 330 331 330 330 330 330 331 331 331 330 329 328 328 328 328 327 325 325 325 325 326 325 324 324 323 323 323 323 322
323 318 320 323 320 319 321 320 314 312 315 317 315 316 320 319 314 315 316 315 315 315 316 317 316 316 316 317 317 317 317 317 317 317 317 318 318 318 318 318 318 317 317 317 316 316 316 316 316 316 315 315 315 315 315 315 316 316 316 316 316 316 316 316 317 317 317 319 325 329 329 329 331 332 332 331 330 330 329 328 328 329 329 328 327 326 325 325 326 326 325 324 323 323 322 322 322
321 320 320 320 318 318 321 321 315 314 316 317 317 316 319 320 314 314 316 315 315 316 316 316 316 316 317 317 317 317 317 317 317 317 317 317 318 318 318 318 318 318 317 317 316 316 316 316 316 316 316 315 315 315 316 316 317 317 316 316 316 317 317 316 316 317 317 317 320 323 327 328 330 332 332 331 330 329 328 327 327 328 329 327 327 327 325 325 326 326 325 324 323 323 322 321 322
323 325 327 326 320 318 320 319 314 313 316 318 318 318 318 318 315 313 315 315 313 314 316 315 316 316 316 316 317 317 317 317 317 317 317 317 318 318 318 317 317 318 318 317 317 316 316 316 316 316 316 316 316 316 316 317 318 317 317 316 316 316 315 316 316 315 315 316 317 319 322 325 327 330 331 330 330 328 328 328 328 329 329 328 327 327 326 326 325 326 325 324 323 323 322 321 321
323 323 326 326 322 319 317 318 315 311 315 319 317 318 317 318 317 312 312 314 311 311 313 314 315 315 316 316 316 317 317 317 317 317 317 317 318 318 318 318 318 317 317 317 317 317 317 317 316 316 316 316 316 316 316 316 316 317 317 316 315 314 314 315 315 315 315 314 316 317 319 321 324 328 329 328 328 327 326 327 330 330 329 328 328 327 327 327 326 325 325 324 323 323 322 322 321
322 323 324 321 319 319 315 317 317 311 313 319 317 317 317 316 316 311 310 311 310 311 311 313 315 315 316 316 316 316 317 317 317 317 317 317 318 318 318 318 317 318 317 317 318 317 317 317 316 317 316 316 316 316 316 316 315 315 316 316 315 315 315 315 315 315 315 315 316 316 317 318 320 324 324 323 323 324 326 328 330 331 329 327 326 326 327 326 325 325 325 324 322 322 322 322 322
326 324 322 320 318 317 316 317 319 314 314 319 321 319 316 315 315 312 309 310 311 312 312 312 314 314 315 316 316 316 316 316 317 317 317 317 317 317 317 317 317 317 317 317 318 318 317 317 317 316 316 316 316 316 316 316 316 315 316 316 317 317 316 317 317 317 317 317 317 316 316 316 317 319 320 320 322 324 326 326 328 328 327 327 325 325 326 325 325 324 324 324 323 322 321 321 321
327 324 320 321 320 318 317 318 317 315 313 316 320 319 317 316 318 316 311 310 312 313 314 314 314 315 315 316 315 316 316 316 316 316 316 316 316 317 317 317 317 317 317 317 317 318 317 317 317 316 316 316 316 316 316 316 316 317 317 317 318 318 318 318 319 319 318 317 316 316 315 315 316 318 319 322 327 331 330 329 328 325 324 325 325 324 325 326 326 324 322 323 323 322 321 321 321
321 331 330 323 322 320 318 318 318 315 315 318 319 318 321 323 326 326 316 310 311 312 313 314 314 315 316 317 316 316 316 315 316 316 316 316 316 316 317 317 317 317 317 317 317 318 318 317 317 317 317 316 316 316 316 316 316 317 318 318 319 319 319 318 318 318 317 316 315 314 314 314 316 318 320 322 326 329 330 330 329 325 323 325 326 325 326 327 327 325 323 323 323 323 323 323 322
316 327 329 322 325 325 320 322 321 318 317 317 316 316 324 328 327 328 320 313 313 310 308 311 314 314 315 316 316 315 316 316 316 316 316 317 316 317 317 317 317 317 317 317 317 317 317 318 317 317 317 316 316 316 316 316 316 317 317 318 318 318 317 317 316 315 314 314 314 313 314 314 314 316 318 320 321 321 324 328 328 327 327 327 327 326 327 328 327 327 324 323 324 324 323 323 323
314 318 322 324 331 327 320 320 318 319 317 313 316 318 319 320 318 319 318 317 319 315 310 311 313 314 314 314 315 315 316 316 317 317 317 317 317 317 317 317 317 317 317 318 318 318 318 318 318 317 317 316 316 316 316 316 316 317 317 316 316 316 315 315 314 314 313 313 313 313 313 313 314 315 316 318 319 319 323 329 329 327 329 331 329 327 327 326 325 327 325 323 324 324 323 322 323
315 318 323 328 329 324 326 325 318 320 318 317 325 323 316 318 315 314 317 318 321 322 319 314 310 312 314 314 315 315 315 316 316 317 318 318 318 318 317 317 317 317 318 318 318 318 318 318 318 317 317 316 316 315 315 315 315 316 316 316 315 315 315 314 314 314 314 314 313 313 313 313 313 314 314 315 317 317 320 324 325 323 324 326 326 325 324 321 321 324 325 323 323 323 323 322 322
318 319 323 326 327 328 335 334 326 322 316 319 328 318 315 324 319 314 316 316 318 323 323 316 310 313 315 315 316 316 316 317 317 318 318 318 318 317 317 317 317 318 318 319 319 319 319 318 318 317 316 316 315 315 315 315 315 315 315 315 315 315 314 314 314 314 314 314 314 313 313 313 313 314 314 314 314 315 315 318 321 324 325 325 324 326 326 321 320 324 324 323 324 323 323 322 321
317 316 320 323 326 329 332 331 325 319 315 321 327 316 313 322 322 317 315 316 321 324 322 315 312 316 317 316 317 316 317 317 317 318 318 317 317 317 317 317 317 317 317 318 318 318 318 317 316 316 316 316 315 315 315 315 315 314 315 315 314 315 314 314 314 314 314 314 314 314 313 314 313 313 313 313 312 312 312 312 314 317 319 321 322 325 327 326 324 325 325 324 324 323 323 322 321
313 320 324 323 326 329 332 332 322 313 318 324 323 318 313 315 324 324 315 315 320 320 321 318 315 317 317 316 317 316 316 317 316 317 317 317 317 316 317 318 317 317 317 317 317 317 317 316 317 317 317 317 317 317 316 316 316 315 315 315 314 314 314 314 314 314 314 314 314 314 313 313 313 313 312 312 312 311 311 311 310 311 314 317 319 320 323 325 324 324 325 325 325 324 323 322 321
316 328 327 320 324 326 328 330 321 313 321 323 319 317 314 313 323 326 318 317 318 316 319 321 317 317 317 316 317 316 316 316 316 316 316 316 317 316 317 317 317 317 317 317 317 317 318 317 318 318 318 318 317 317 317 317 317 316 316 315 315 315 314 314 314 314 314 313 313 313 313 313 312 312 312 311 311 310 310 310 310 314 318 322 324 322 321 321 322 324 326 325 325 324 324 323 322
319 323 323 317 319 319 319 324 321 318 319 317 317 317 315 315 319 319 319 319 318 315 316 318 316 316 317 316 316 316 315 315 315 316 316 316 316 316 316 316 317 317 317 317 318 318 318 317 317 318 317 318 317 317 317 317 317 317 317 316 316 315 315 314 314 314 314 314 314 313 313 313 313 312 312 311 311 310 310 310 310 315 320 323 324 322 321 322 323 324 325 325 324 323 323 323 323
317 317 320 319 319 317 317 319 317 318 318 315 315 316 317 320 317 316 318 315 314 313 312 315 316 316 317 316 317 316 314 315 315 316 316 316 316 316 316 316 316 316 316 317 317 317 317 317 317 317 316 317 317 317 317 317 317 317 316 316 315 315 315 315 315 315 315 315 315 314 314 314 313 313 312 311 311 310 310 310 310 313 316 318 320 320 322 323 323 323 324 324 323 322 322 322 323
317 318 315 318 323 322 320 320 318 319 320 316 313 316 323 323 315 314 313 310 311 312 313 314 314 315 316 316 316 315 314 316 316 316 316 316 316 316 316 316 316 316 316 316 316 316 316 317 316 316 316 316 317 317 317 317 317 316 316 316 315 315 315 315 315 315 315 315 315 314 314 314 313 313 312 311 310 310 309 309 310 311 312 315 318 320 322 323 323 323 323 322 322 322 321 322 322
317 316 313 314 321 322 318 317 319 320 318 317 315 319 325 320 314 313 310 309 309 309 310 312 311 314 315 314 315 314 315 316 316 317 316 316 316 316 316 316 316 316 316 316 316 316 316 316 316 316 316 316 317 317 317 317 317 316 316 316 315 316 316 316 316 316 315 315 314 314 314 313 313 313 312 311 310 310 309 309 309 310 310 312 316 319 321 322 322 322 321 321 321 321 321 321 321
316 314 317 317 316 321 319 313 314 315 313 316 316 320 322 316 314 316 313 313 314 310 310 312 311 312 311 312 315 314 315 316 317 317 316 316 317 316 317 316 316 316 316 316 316 316 317 316 317 317 316 317 317 317 317 317 316 316 316 316 316 316 316 316 316 315 314 314 314 314 314 313 313 313 312 312 311 310 309 309 309 310 310 312 316 318 320 320 320 320 321 321 321 321 319 319 319
319 318 319 315 311 319 322 317 318 317 314 318 317 316 320 317 316 318 313 313 315 313 312 312 311 311 310 313 315 314 316 317 316 316 315 316 317 316 317 316 316 316 316 316 316 316 317 316 317 317 317 318 317 317 317 316 316 316 316 316 316 316 316 315 315 314 314 314 314 314 314 314 314 313 312 312 311 310 309 308 309 311 312 314 316 317 318 319 319 320 321 321 320 319 319 319 320
317 318 315 315 317 320 319 315 319 318 315 320 319 314 315 315 315 316 313 313 316 315 315 316 314 312 312 315 315 315 317 317 316 315 315 316 316 316 316 315 316 316 315 315 315 315 316 315 316 316 316 317 317 317 317 317 317 316 316 316 316 316 316 315 315 315 315 315 315 315 315 315 314 313 313 312 311 311 310 308 309 311 313 314 314 315 316 318 319 320 320 320 319 319 320 320 321
312 313 311 316 323 322 320 316 317 317 315 319 319 315 315 315 315 316 314 316 318 315 317 317 312 311 313 315 315 316 317 316 316 315 315 315 315 315 316 315 315 315 315 315 315 315 315 315 315 316 316 316 317 317 317 317 317 316 316 316 316 316 316 316 316 315 316 316 316 316 315 315 314 314 313 312 312 311 310 309 308 309 311 312 313 315 317 318 318 318 318 319 320 320 320 320 319
315 316 315 316 317 317 319 317 315 318 319 319 317 315 318 318 314 315 315 318 319 316 317 316 311 311 314 315 316 316 315 316 315 315 315 315 315 315 315 315 315 315 315 315 315 315 315 315 315 315 316 316 316 317 317 317 317 316 317 317 317 317 316 316 316 316 316 316 316 316 315 315 314 314 313 312 312 311 310 309 308 308 309 311 312 314 316 318 318 317 318 319 320 320 320 319 319
316 316 316 316 316 316 318 316 315 316 317 320 317 312 316 317 313 314 317 317 316 313 313 314 312 312 314 315 316 316 315 316 315 315 315 315 315 315 315 315 315 315 316 315 315 315 315 315 316 315 316 316 316 316 316 317 317 317 317 318 317 317 317 317 317 316 317 317 316 316 315 315 315 314 313 313 312 311 310 309 308 307 309 312 314 315 316 317 318 318 318 319 319 319 319 319 319
Wind_Speed
3 2 2 1 1 1 1 2 1 2 3 3 1 1 1 2 2 4 3 1 2 2 7 10 10 9 7 9 11 10 7 2 3 2 4 10 18 20 19 20 18 17 15 15 15 14 13 13 12 12 11 11 10 9 8 7 7 7 8 10 12 12 13 14 13 14 14 15 15 15 15 14 14 13 13 14 17 18 16 15 14 12 10 8 8 9 9 8 8 8 10 11 12 12 12 12 12
3 3 2 0 1 1 0 3 2 3 5 3 1 2 1 2 3 6 5 3 4 6 12 16 16 17 15 14 11 8 8 4 2 7 14 20 22 20 19 19 18 17 16 15 15 14 14 13 13 12 12 11 10 9 7 7 6 7 8 10 11 12 12 14 13 14 14 14 14 15 14 14 14 13 15 17 17 17 15 12 10 9 7 6 8 9 9 8 9 10 11 12 12 12 12 12 12
3 2 1 1 1 2 1 3 2 2 4 2 2 2 1 3 5 6 6 6 10 14 16 16 14 12 10 7 5 3 4 5 10 16 22 23 22 22 21 19 17 16 16 16 15 14 13 13 13 13 12 12 10 9 7 6 6 7 8 9 11 12 12 14 14 13 13 13 13 13 14 14 13 13 16 19 18 17 14 11 8 8 8 8 9 9 9 10 11 12 13 13 12 13 12 12 12
3 2 0 0 1 3 3 3 2 4 4 3 2 3 2 6 7 6 5 9 13 13 11 10 8 4 5 6 6 5 5 9 16 21 23 22 20 23 22 19 18 16 16 15 15 14 13 12 12 12 12 11 10 9 7 6 6 6 7 9 10 11 12 13 13 13 13 13 13 12 12 13 14 13 16 18 16 15 13 11 9 9 10 10 10 10 11 12 12 13 13 13 13 12 12 12 11
3 2 1 1 2 1 3 3 2 5 3 4 3 4 4 6 7 5 5 8 9 7 7 8 6 5 8 8 5 4 7 12 16 19 23 21 18 22 22 19 18 17 17 15 14 13 12 12 11 11 11 11 10 9 7 5 6 5 6 8 10 10 11 12 12 13 13 13 12 12 11 12 14 13 15 16 14 13 10 9 8 8 9 11 11 12 12 11 12 13 13 13 13 13 12 11 10
3 2 1 3 3 1 2 3 3 2 4 5 4 4 5 6 8 8 8 8 7 7 8 8 7 8 8 7 5 8 10 10 15 19 22 21 19 21 21 19 18 17 17 16 14 13 12 12 11 11 11 11 10 9 7 5 5 5 5 7 9 10 10 10 11 12 12 12 12 11 10 10 11 12 14 14 13 12 9 8 7 6 9 12 13 13 12 11 12 13 13 12 12 12 11 10 10
4 2 2 4 3 2 2 3 4 2 2 5 6 6 7 8 11 12 9 7 6 7 8 8 12 10 5 5 6 10 10 8 14 20 21 20 20 21 20 20 19 17 17 16 15 13 13 12 12 11 11 11 11 9 7 6 5 5 5 6 8 9 9 9 10 11 11 11 11 11 10 9 9 11 14 14 14 13 12 11 9 9 12 13 13 13 12 12 13 13 13 12 11 11 10 9 10
4 2 4 3 2 3 4 2 2 2 1 3 5 8 12 14 15 11 6 5 4 5 8 10 12 7 3 6 5 7 10 9 12 19 20 19 20 21 21 21 19 18 17 17 15 14 13 12 12 11 11 11 10 10 8 6 6 5 5 6 7 8 8 8 9 10 11 11 11 11 10 9 9 11 12 13 14 14 14 13 10 11 13 13 13 13 12 12 13 13 13 12 11 10 10 9 8
4 3 3 3 2 3 3 2 0 2 1 1 4 8 16 19 16 10 5 3 5 6 9 11 9 4 5 6 6 9 11 10 13 19 20 18 20 20 21 21 19 19 18 17 15 14 13 12 12 11 10 9 9 9 8 7 6 6 5 5 6 6 7 8 8 9 10 10 10 10 9 8 9 10 11 11 13 13 13 12 10 11 13 13 12 13 12 12 13 13 13 12 11 10 9 8 7
3 3 2 3 2 3 2 0 0 0 2 3 4 11 18 18 13 10 8 5 7 7 8 9 6 8 9 7 8 11 12 12 16 20 20 19 20 19 21 21 19 18 18 17 15 14 13 12 12 11 10 9 8 8 7 7 7 6 5 5 5 5 7 7 8 8 9 10 10 10 9 9 9 10 10 10 12 12 12 11 10 11 13 12 11 12 12 13 14 14 13 12 11 10 9 8 8
2 2 3 4 3 2 2 3 2 2 2 1 3 13 18 17 13 10 9 7 7 7 9 7 6 13 10 6 7 10 13 14 15 19 21 21 20 20 20 21 19 18 17 17 15 15 13 13 12 12 11 9 8 8 8 7 7 7 5 5 5 5 6 7 7 8 8 9 9 9 9 9 9 10 10 9 10 11 10 10 10 11 13 12 11 12 12 13 14 14 13 11 10 10 10 9 10
2 2 4 4 2 2 4 4 3 3 3 1 4 11 14 16 13 9 9 9 8 7 8 5 8 14 6 2 7 11 15 14 14 16 20 21 21 22 20 19 19 18 16 16 16 15 14 14 13 13 12 10 9 9 9 8 8 7 6 5 5 5 5 6 7 7 8 8 8 8 8 8 9 9 9 9 9 9 9 9 10 11 13 13 12 11 12 13 14 14 12 11 10 9 9 9 9
3 1 5 2 3 3 4 4 3 0 2 3 5 8 13 14 12 14 14 11 9 7 5 5 12 12 3 2 8 13 16 16 15 15 19 22 23 23 21 19 18 18 17 15 15 15 15 16 15 14 13 12 10 10 9 9 9 8 8 7 6 5 5 5 6 7 7 7 7 7 7 7 8 8 9 9 8 8 9 11 12 13 14 14 13 11 12 13 13 12 11 10 9 8 7 7 8
4 2 4 2 1 3 5 3 2 3 2 6 5 9 12 9 11 18 16 9 8 8 6 7 13 9 3 5 8 15 18 17 18 16 20 23 24 24 21 20 19 19 17 16 15 14 15 16 16 15 15 13 12 11 10 10 10 9 9 8 7 6 5 5 6 7 7 7 7 7 6 7 7 7 8 8 9 9 9 11 12 13 14 14 13 12 12 12 11 10 9 8 7 6 5 5 6
4 2 4 3 2 1 3 2 3 5 4 5 6 10 9 6 9 16 16 10 7 9 9 8 10 5 5 9 7 16 20 19 21 19 22 25 25 24 22 21 20 19 18 17 16 15 15 16 17 16 16 15 14 13 11 11 10 10 10 9 8 7 6 5 6 6 6 7 6 6 6 6 6 6 7 8 9 9 9 10 11 12 13 13 13 12 11 11 10 9 8 7 6 5 4 4 5
4 2 4 3 1 1 2 2 3 4 4 5 8 10 7 5 8 11 12 9 8 11 8 7 8 3 7 9 4 13 19 20 23 22 26 28 27 25 23 21 20 20 19 19 18 17 16 16 18 17 17 16 15 14 13 13 12 12 11 10 10 9 8 6 6 6 6 6 6 6 5 5 5 5 6 8 9 10 10 10 10 11 12 12 11 11 10 9 9 8 7 6 5 4 4 3 4
4 2 4 2 1 1 2 4 4 4 4 4 8 11 7 3 6 9 9 9 12 12 7 7 8 6 7 6 6 14 19 21 25 27 30 30 29 26 23 23 23 23 22 22 20 19 18 18 18 18 18 17 17 16 15 14 14 13 12 12 12 11 10 9 8 7 6 6 5 6 5 5 5 5 6 7 9 10 10 10 10 11 11 11 10 10 9 8 7 7 6 6 5 4 4 4 3
3 3 3 2 3 2 4 6 5 3 4 7 11 13 9 5 7 10 8 8 12 9 7 8 9 9 8 6 10 15 19 22 26 30 32 32 31 28 26 26 26 25 25 24 23 22 21 20 20 19 20 19 18 17 16 16 16 15 14 14 13 13 12 11 10 8 8 7 6 6 5 5 5 6 6 6 8 9 10 10 10 10 10 10 10 9 8 8 7 6 6 5 5 4 4 4 3
3 3 3 3 5 3 2 4 5 2 5 12 13 13 11 8 11 12 6 6 10 8 5 7 10 11 9 10 12 15 19 22 24 28 30 31 31 30 28 27 27 26 26 25 24 23 22 21 21 21 21 20 20 19 18 18 17 17 16 15 14 14 13 13 12 10 10 9 8 7 6 6 6 6 6 7 8 8 9 10 10 9 9 9 9 9 8 7 6 5 5 4 4 4 4 3 2
2 3 3 4 7 3 1 1 3 5 8 14 12 13 10 8 13 12 7 7 7 7 8 8 11 13 12 13 14 15 18 20 23 25 27 28 29 29 27 26 25 24 24 25 24 23 22 22 22 22 21 21 21 20 20 19 19 18 17 17 16 15 15 15 14 13 12 11 10 9 8 7 7 7 7 8 8 8 8 9 9 9 9 8 8 8 7 7 6 5 4 4 3 3 2 2 1
2 4 4 5 6 3 1 2 1 4 11 15 13 11 7 7 12 12 9 7 3 10 16 13 13 16 17 17 16 16 18 19 22 24 25 26 26 26 25 24 22 21 22 24 24 23 23 22 22 21 21 22 22 21 21 21 20 20 19 19 18 17 17 17 16 15 15 14 12 11 10 9 8 8 8 9 9 9 9 9 9 9 9 9 8 7 7 6 6 5 5 4 3 2 1 1 1
3 1 2 5 7 3 1 2 2 5 10 12 11 9 7 8 10 13 12 8 7 13 18 15 14 15 16 18 18 18 19 19 21 23 25 25 25 25 24 24 23 23 24 25 24 23 23 22 22 21 21 22 22 22 21 21 21 21 21 20 20 19 19 18 18 17 17 16 15 14 13 12 11 10 9 10 10 10 10 10 10 10 10 10 9 8 7 7 7 6 5 4 4 3 3 3 2
3 1 1 5 6 4 5 4 3 7 10 11 11 9 9 9 6 11 15 12 10 10 12 14 14 14 15 17 20 20 20 19 20 20 21 22 23 23 23 23 23 23 24 24 23 23 24 23 23 22 22 22 22 22 22 22 23 22 22 21 21 21 20 20 20 19 18 18 17 16 15 14 13 12 11 11 11 11 10 11 11 11 11 11 10 9 9 8 8 8 7 6 5 5 4 4 4
4 2 1 3 3 5 6 6 5 7 11 11 10 8 9 9 5 7 13 16 12 7 6 9 13 16 17 18 20 20 19 19 18 17 17 18 18 18 19 20 21 22 23 24 23 23 24 24 24 24 23 23 23 23 23 23 24 23 23 22 22 22 21 22 21 20 20 20 19 18 17 16 15 14 13 13 12 11 11 11 12 12 12 12 12 11 10 9 8 9 9 9 8 7 6 6 6
3 3 4 4 3 5 5 6 6 6 8 8 8 7 7 8 4 4 13 16 12 10 8 7 10 15 19 20 20 20 20 19 18 18 18 17 17 18 20 21 22 23 24 23 24 23 23 23 24 25 25 25 24 24 24 24 25 25 25 24 24 23 23 23 22 21 22 22 21 20 19 19 18 16 15 15 13 12 12 12 12 13 13 14 13 13 12 11 10 9 10 11 10 9 8 7 7
4 7 9 7 4 5 5 6 6 5 6 6 5 4 2 4 3 8 16 16 14 14 12 10 9 11 16 19 20 20 20 20 19 19 19 18 19 21 22 22 23 24 23 23 24 24 23 23 24 25 25 26 26 25 25 25 26 27 26 26 25 24 24 24 23 23 23 23 23 22 21 20 19 18 17 17 15 14 13 13 13 14 14 14 14 14 14 12 11 11 11 12 12 11 10 9 9
8 11 10 8 6 6 4 4 6 5 4 4 5 3 2 2 0 7 12 10 14 18 15 14 13 12 13 16 18 19 19 19 18 18 19 20 21 22 22 23 24 23 22 23 24 24 23 24 24 24 24 25 27 27 27 27 27 28 27 27 26 26 25 25 25 24 24 24 24 23 22 22 21 20 20 19 17 15 14 14 14 15 15 15 15 15 15 14 13 13 13 13 13 12 11 11 11
14 14 8 5 3 2 2 4 7 6 3 4 5 1 3 1 1 12 15 7 10 17 19 17 16 15 14 16 17 19 20 19 18 19 20 20 21 21 22 22 23 22 22 22 21 22 24 25 25 24 24 25 27 28 28 28 28 28 28 28 28 28 26 27 27 26 25 25 25 24 24 23 23 23 21 20 19 17 15 15 15 15 15 16 16 16 16 15 15 16 15 15 14 13 13 12 12
13 11 5 5 7 2 3 4 6 5 3 4 4 1 4 2 8 17 12 6 8 14 20 21 19 18 17 17 19 20 21 20 21 23 21 20 20 20 21 20 20 21 21 20 20 22 23 23 24 25 25 26 27 27 27 27 27 28 28 28 28 29 28 28 28 28 26 26 25 25 25 25 24 23 22 20 19 18 17 17 16 16 16 16 16 17 17 17 17 17 17 17 16 15 14 15 14
8 4 4 2 7 4 4 2 4 5 3 5 5 1 6 6 17 20 9 7 10 13 20 22 21 20 19 19 20 21 21 22 24 24 22 21 21 21 22 20 20 21 20 20 22 22 22 22 23 24 26 27 27 27 27 27 27 27 27 27 27 28 29 30 30 29 28 27 27 26 26 27 26 25 24 22 21 20 19 18 18 17 17 16 17 18 19 18 18 18 18 18 18 16 16 17 16
3 1 2 3 2 4 5 1 6 5 2 5 5 1 6 8 14 15 12 13 13 15 19 21 22 21 21 21 21 22 22 24 25 24 23 23 22 23 23 22 22 22 22 22 23 22 22 22 23 24 24 25 26 27 28 27 26 26 26 27 26 27 28 30 30 31 31 30 29 29 29 28 28 27 25 24 24 23 21 20 19 19 19 18 18 19 20 20 20 19 20 20 19 18 18 18 17
3 2 2 3 3 4 7 1 8 6 2 3 5 1 6 9 9 5 5 10 13 16 17 17 21 21 21 21 21 23 22 22 24 23 23 23 23 24 23 23 23 24 24 24 23 23 23 23 23 24 24 24 25 26 27 27 26 26 26 26 26 26 27 28 29 30 31 32 31 32 31 30 29 28 27 26 26 26 25 23 21 21 21 21 20 20 21 22 22 21 21 21 20 19 19 19 20
4 3 2 2 2 3 5 2 5 4 2 1 2 2 3 4 4 3 5 3 11 14 16 16 19 20 21 21 22 23 23 24 25 25 24 23 23 23 22 22 23 24 24 24 24 25 25 25 25 25 25 25 24 25 26 26 26 26 27 27 26 26 27 28 28 28 29 32 34 34 32 31 30 29 29 28 29 29 28 25 23 23 23 24 23 23 23 23 24 24 24 22 20 20 20 20 21
3 2 1 3 3 2 2 2 3 1 3 1 0 3 6 6 8 8 3 2 7 11 15 16 17 19 20 21 22 24 25 26 27 27 25 23 22 21 21 21 22 23 24 25 25 26 25 25 26 26 25 25 25 25 26 26 26 26 27 27 28 28 28 28 28 28 28 30 33 36 34 32 32 32 31 30 31 31 30 28 26 26 26 25 26 25 24 25 26 27 26 24 22 22 22 22 22
5 3 2 2 2 3 3 3 2 1 2 2 1 2 9 10 13 18 17 12 12 15 17 18 19 21 22 23 25 26 27 29 30 27 25 24 23 21 20 19 20 22 23 25 26 26 27 27 27 27 26 26 26 26 26 26 26 27 28 28 30 31 31 30 30 30 29 29 31 34 35 34 34 35 33 33 33 33 32 30 29 31 29 27 28 28 28 28 28 30 30 26 24 24 24 23 22
8 6 5 4 3 3 4 4 4 1 2 3 5 6 9 10 10 16 22 20 15 17 21 23 25 26 27 27 29 29 30 32 30 27 26 25 25 23 22 21 21 21 22 24 26 27 28 28 28 28 27 27 28 28 28 28 29 29 30 31 32 33 33 33 32 32 31 31 31 31 34 35 36 36 35 35 35 35 33 32 34 36 32 29 30 32 33 32 30 32 32 30 28 27 26 26 26
7 6 5 4 4 3 3 3 4 1 3 5 5 5 8 10 10 14 23 20 13 17 22 25 29 29 29 29 30 30 31 31 29 28 27 26 26 25 25 25 24 24 24 25 26 27 27 28 28 28 27 28 29 30 30 30 31 31 32 32 33 33 34 34 34 33 33 32 32 32 32 34 35 38 38 37 37 38 35 33 37 38 33 31 32 34 37 33 30 32 34 33 32 30 29 29 30
5 6 5 2 2 3 3 2 4 1 1 4 3 4 9 10 10 15 20 14 13 21 23 26 30 29 29 29 30 31 30 31 30 29 28 26 27 27 27 28 27 27 26 25 26 26 26 28 29 27 27 29 29 29 30 31 31 31 32 32 32 33 34 35 34 34 34 34 34 34 34 34 35 37 39 38 38 39 36 35 38 38 35 34 33 36 39 36 32 35 37 37 35 33 32 32 33
5 4 5 2 2 2 3 4 5 3 1 4 5 6 10 10 9 15 18 15 18 24 23 25 28 28 30 31 31 32 31 32 31 30 29 28 29 29 30 30 29 28 27 26 26 25 27 28 28 27 28 29 28 29 30 30 31 32 33 34 34 34 34 35 35 35 36 36 36 36 36 36 36 37 37 35 35 37 37 37 38 39 38 37 35 37 41 40 36 39 41 40 38 35 35 35 35
4 4 4 2 2 1 1 4 5 3 1 2 4 6 9 8 5 11 15 15 17 20 19 21 23 25 28 29 30 31 31 31 29 28 28 28 29 29 29 29 27 28 27 28 27 26 27 27 27 27 27 28 28 29 30 30 32 33 35 36 36 36 36 36 37 38 38 38 38 38 38 38 38 37 35 33 34 39 41 40 39 38 39 40 38 39 45 44 37 38 42 43 40 37 35 34 36
1 3 5 3 3 3 2 2 2 3 4 3 4 6 7 5 4 6 6 5 10 11 11 15 17 19 21 22 24 26 27 27 25 23 23 24 25 25 25 25 25 25 26 27 26 25 25 25 25 26 26 27 28 29 30 32 34 35 36 37 38 39 39 39 39 40 39 39 39 39 39 39 38 38 36 34 36 40 42 42 40 40 44 45 39 39 47 46 36 37 42 45 43 40 37 35 36
2 3 6 6 6 6 2 2 4 4 4 4 5 4 6 5 4 7 5 5 7 7 7 14 18 18 20 22 25 26 25 24 22 21 20 21 22 21 20 21 21 22 21 22 22 23 24 23 23 24 26 27 28 30 32 33 35 36 37 38 39 40 40 41 40 40 40 39 39 39 39 39 38 38 37 36 37 37 40 43 43 44 49 49 40 36 43 45 39 37 40 43 44 43 41 39 38
1 4 6 7 7 7 4 2 3 1 3 3 4 3 5 7 5 8 6 6 8 9 10 18 22 20 22 25 26 26 24 21 20 19 19 19 19 18 18 19 19 18 17 18 20 21 22 22 22 23 24 25 26 29 31 33 35 36 37 38 38 39 40 40 39 39 39 39 39 39 39 38 38 38 38 38 38 37 38 43 43 42 45 44 38 36 40 44 44 42 42 44 47 47 44 42 41
3 4 7 8 7 7 5 5 3 2 3 4 4 4 2 6 5 5 2 3 8 11 11 15 19 18 18 19 18 18 18 17 16 15 15 15 15 15 15 16 16 16 15 16 18 19 20 20 21 21 23 24 26 28 30 32 34 35 36 37 38 39 39 39 38 38 38 38 39 39 38 39 38 38 38 38 39 38 40 43 44 43 43 44 44 44 45 46 46 47 47 47 50 49 43 40 43
4 4 7 6 6 7 5 6 3 1 2 4 5 2 2 6 6 2 2 4 8 10 10 11 15 14 10 7 4 3 4 6 8 9 9 9 7 7 8 9 11 12 14 15 16 17 18 19 20 21 23 24 25 27 28 30 31 32 34 35 36 37 37 37 36 36 37 37 38 37 37 38 38 38 39 38 39 40 41 43 45 46 47 48 49 49 48 44 43 47 49 50 52 49 40 39 41
4 6 7 5 5 6 5 5 4 3 2 4 6 3 2 6 7 4 3 2 6 8 8 8 11 9 4 6 8 8 6 2 2 4 4 3 3 4 5 5 5 8 11 13 14 16 17 18 19 20 21 22 23 25 26 27 28 29 30 32 33 33 33 34 34 35 36 36 37 37 37 38 38 38 38 38 38 39 40 42 44 47 49 49 47 47 46 42 41 47 52 52 51 44 37 38 38
9 8 7 6 6 5 4 3 4 2 3 6 7 4 2 4 7 4 2 3 5 4 6 7 8 9 13 13 12 9 6 4 2 3 3 3 5 5 4 3 3 5 7 10 11 13 14 16 17 17 18 19 20 21 22 23 24 25 26 27 28 29 29 30 31 32 32 33 34 35 35 36 37 37 37 38 38 38 38 39 40 42 42 43 44 44 45 43 42 47 52 51 46 41 37 37 38
8 5 5 4 4 4 4 4 3 1 5 6 5 2 4 4 7 4 4 6 5 3 4 5 4 9 12 11 8 6 6 6 6 5 4 5 6 5 3 2 3 4 5 7 8 10 12 14 15 16 16 17 18 19 19 20 21 21 22 23 24 25 25 26 27 28 28 29 30 30 31 33 34 35 36 37 38 38 38 37 38 38 37 39 42 41 41 41 41 45 48 45 40 39 38 38 40
6 5 6 4 2 2 3 3 0 3 6 4 2 1 3 6 7 7 9 9 7 8 7 3 1 5 7 6 4 5 8 9 9 7 6 6 6 3 1 3 4 6 6 7 8 10 11 13 14 15 15 15 17 18 18 18 19 19 19 20 21 21 22 22 23 23 24 24 25 26 27 28 30 31 32 34 35 35 36 36 37 40 40 41 44 42 40 41 42 44 43 40 39 41 42 44 45
4 5 6 4 3 1 3 4 2 4 5 2 2 2 3 4 4 9 13 7 4 7 7 4 3 2 3 2 1 4 9 9 8 7 6 6 6 4 3 4 6 7 8 9 10 12 13 14 15 16 16 16 17 18 18 18 18 18 18 18 19 19 19 19 19 20 20 20 21 22 24 25 26 27 28 29 30 31 33 33 35 40 43 43 43 42 42 43 42 42 41 41 44 47 48 49 49
4 4 6 5 5 5 4 4 3 4 3 3 3 1 3 3 2 7 12 9 5 6 7 6 5 4 3 4 4 4 8 6 5 5 5 5 5 5 5 6 7 8 9 11 12 14 16 17 18 18 18 17 18 18 18 18 17 16 17 17 17 17 17 17 17 17 17 18 19 21 22 23 24 25 25 25 26 28 30 31 33 37 40 42 43 43 43 44 43 43 44 47 48 48 49 48 46
2 2 5 3 5 5 2 3 5 3 1 3 2 3 4 4 5 9 11 11 8 7 8 8 8 8 7 7 4 2 6 7 5 5 6 5 5 4 4 5 6 7 9 10 11 13 15 17 19 20 19 18 18 19 19 18 16 16 17 16 15 15 14 14 14 15 16 17 19 20 21 22 22 23 23 23 25 27 29 30 31 33 35 38 40 42 45 46 45 44 45 47 46 44 43 42 40
2 2 3 5 4 7 4 2 0 3 2 4 2 4 5 3 7 8 6 8 8 6 8 9 8 6 5 4 2 4 5 7 6 6 6 5 4 4 4 4 5 6 7 8 8 10 12 14 17 18 19 19 19 19 18 17 16 16 15 14 14 13 13 14 14 15 16 17 19 20 20 21 21 22 22 23 25 26 27 28 30 32 33 34 36 39 42 42 42 42 43 42 39 37 37 38 39
5 3 6 3 2 4 4 2 3 3 3 5 1 5 5 2 5 5 3 5 8 8 7 7 7 3 5 6 7 7 6 7 7 8 7 5 5 5 5 5 5 5 6 6 6 8 9 11 14 16 18 19 19 19 18 17 16 15 15 14 13 13 14 15 15 16 17 17 18 18 19 20 20 21 22 23 25 26 26 27 29 31 33 34 37 39 39 40 40 40 41 40 36 35 37 39 41
5 4 4 4 2 1 2 2 2 1 3 5 4 4 4 5 6 2 0 7 7 6 5 7 10 4 8 10 10 10 9 8 9 10 9 7 7 8 8 8 8 8 9 9 8 9 9 10 14 17 19 19 19 19 18 18 17 16 15 14 14 15 15 16 16 17 17 17 17 18 18 19 20 21 22 23 25 26 27 27 29 31 34 36 37 37 37 39 41 41 41 40 38 37 40 42 43
3 2 3 3 2 4 3 3 3 3 3 3 4 4 3 6 7 6 7 9 8 5 2 3 5 3 7 10 11 12 12 11 12 14 12 9 10 11 11 12 14 14 14 15 15 15 14 15 18 22 25 23 21 21 19 18 18 16 15 15 15 16 17 17 17 17 17 17 18 19 20 20 20 21 23 23 25 26 27 28 29 31 35 36 36 36 37 38 40 42 42 41 38 38 41 42 42
3 4 4 2 1 2 2 1 2 4 4 3 3 5 6 5 4 8 10 9 7 7 5 4 6 5 7 10 11 13 15 15 15 16 16 15 16 17 18 19 20 21 20 21 22 22 23 23 24 25 27 28 25 23 21 19 19 18 16 16 16 17 17 17 18 19 19 19 19 20 21 21 22 23 23 24 26 26 27 28 29 30 32 33 35 36 38 39 39 40 40 40 38 38 40 39 39
7 7 8 7 5 4 3 3 2 2 3 4 3 5 8 5 5 6 8 7 6 9 8 4 4 8 11 14 14 15 15 16 17 18 20 22 22 21 21 21 23 24 24 26 28 30 30 29 28 27 27 28 29 25 24 23 21 20 18 17 18 18 19 19 20 21 20 20 21 22 22 23 23 24 24 25 26 26 27 28 29 30 30 31 33 35 36 37 38 39 39 39 38 37 37 37 39
Wind_Direction
221 245 273 289 274 163 18 21 94 357 69 100 34 103 159 196 162 120 137 143 75 55 84 85 82 98 111 107 116 105 78 118 182 149 160 149 147 157 156 155 157 153 151 148 151 152 151 148 145 142 138 136 135 132 123 111 88 73 60 51 51 55 63 66 67 66 66 65 64 67 69 75 83 93 93 103 127 126 117 121 120 120 122 117 119 123 118 110 103 99 100 101 101 100 96 92 87
214 231 278 273 300 120 110 51 86 346 52 92 298 142 164 353 96 144 188 182 148 136 101 90 92 97 102 101 102 84 52 37 178 144 133 141 150 158 156 155 156 154 150 146 147 150 151 149 148 146 144 142 140 135 127 116 94 78 63 54 54 57 68 71 69 69 68 67 66 68 71 76 81 91 96 100 118 126 123 125 129 133 135 124 122 119 112 108 106 106 106 109 109 106 101 97 92
213 231 283 190 350 50 103 52 77 73 72 123 259 254 133 90 143 189 208 162 137 131 113 101 96 99 107 91 64 77 74 85 132 136 134 148 157 156 157 155 156 157 151 147 146 149 152 151 152 151 149 146 142 139 133 120 97 79 65 57 57 61 71 73 71 71 71 71 69 69 74 79 83 90 102 108 115 121 121 119 121 126 129 118 114 111 108 110 110 112 113 115 115 113 110 105 101
211 229 273 158 36 51 71 55 113 116 114 168 199 264 208 146 172 207 174 139 138 136 130 114 84 91 124 107 92 98 116 127 139 142 144 155 159 155 154 152 157 160 154 152 149 148 153 153 155 154 152 148 143 143 140 127 102 83 70 62 62 67 73 73 70 69 70 72 71 71 77 82 88 95 105 116 118 118 118 113 109 111 113 108 111 112 111 114 114 115 117 119 119 118 116 115 110
213 216 171 38 33 39 73 71 98 105 163 177 153 249 234 172 172 190 151 138 152 153 146 123 88 101 108 108 116 118 136 145 151 153 150 154 160 157 153 154 159 162 160 159 153 150 153 154 157 160 158 152 148 151 150 136 115 96 78 69 66 71 74 74 69 67 67 69 71 72 79 88 97 100 105 116 118 117 121 118 110 104 104 106 114 116 116 117 116 116 120 124 122 117 116 120 114
204 196 75 54 62 75 81 86 101 111 209 164 145 221 215 192 169 158 141 130 139 141 141 130 130 129 98 89 114 134 137 147 163 163 155 155 162 158 155 159 162 165 166 163 160 157 158 160 161 166 166 158 156 161 160 147 130 115 93 76 71 74 74 75 71 67 67 69 69 72 79 90 100 98 101 115 118 118 123 121 116 112 109 113 120 120 122 120 116 119 125 127 124 118 114 116 108
198 184 72 71 68 50 90 124 156 177 217 168 162 177 190 198 166 144 135 128 118 125 131 134 143 131 97 107 116 139 142 145 165 166 159 159 163 160 159 163 165 167 169 166 164 164 165 167 165 169 172 165 164 167 166 157 143 130 107 83 76 76 75 76 74 71 71 73 72 73 81 89 93 93 100 110 115 120 122 114 113 120 117 119 125 124 126 123 121 124 128 129 126 123 117 113 103
196 131 77 89 50 34 96 117 204 180 85 180 165 164 179 179 161 147 141 147 142 137 129 140 148 120 124 157 132 154 151 137 158 167 163 163 165 162 164 167 167 167 168 168 167 169 171 170 168 171 174 172 171 170 170 165 154 145 120 93 82 77 75 76 76 77 77 78 78 76 83 89 87 93 103 109 114 121 117 109 110 121 121 123 128 127 129 126 124 127 131 132 129 127 122 117 107
173 99 65 85 76 26 68 64 272 197 305 166 147 169 175 169 160 146 133 140 150 148 136 151 163 135 164 167 132 154 158 143 155 168 168 170 170 166 169 169 169 169 168 170 170 172 174 174 174 176 176 177 177 175 177 174 165 157 135 107 91 77 73 74 79 82 81 82 84 82 85 88 86 95 107 112 117 122 118 114 114 122 122 123 129 129 131 126 123 128 135 137 136 134 131 125 118
137 101 95 78 82 40 41 158 213 192 213 192 175 174 169 168 161 141 133 135 148 146 141 151 159 148 154 147 133 155 165 157 160 170 174 176 176 174 173 169 169 173 171 172 174 175 179 180 181 184 184 183 184 183 183 180 173 165 150 122 100 79 71 73 80 84 83 83 87 87 88 89 88 95 106 116 123 127 126 127 127 126 125 125 131 133 132 126 124 134 141 143 143 140 138 134 127
108 75 113 76 70 95 169 195 244 275 237 240 196 176 167 163 151 133 130 136 155 149 147 143 137 142 136 134 150 166 169 170 171 172 176 178 180 180 176 170 170 176 177 175 178 180 184 186 187 190 189 190 190 188 186 182 178 174 164 140 116 92 76 74 80 83 83 82 86 87 87 88 89 95 101 112 124 132 135 139 140 134 132 132 137 138 134 129 131 140 146 146 145 141 138 136 130
117 358 85 86 134 177 183 161 195 264 298 229 184 187 172 157 144 140 141 146 166 161 159 159 154 147 115 124 163 169 173 175 176 173 175 176 180 182 179 173 170 175 180 181 183 186 188 191 193 193 192 193 193 193 191 184 183 185 179 167 149 127 100 89 90 89 87 85 87 86 85 86 88 95 99 105 115 128 134 140 144 142 140 137 139 142 138 136 138 142 145 145 142 138 134 130 126
134 140 89 98 203 150 141 137 187 267 322 230 188 186 173 161 157 162 154 151 164 160 164 164 165 158 99 151 163 170 177 177 175 173 173 176 181 183 181 176 174 177 182 186 188 191 192 194 195 196 196 193 194 194 192 189 190 193 191 187 175 156 130 111 110 107 102 95 95 93 91 91 91 97 102 107 112 119 125 133 140 143 141 138 142 146 142 140 140 140 140 141 137 130 125 120 118
120 136 109 127 172 108 135 123 188 149 243 245 197 173 169 168 170 167 154 147 172 159 148 153 166 169 128 154 178 182 178 177 177 174 173 176 181 185 183 179 179 181 184 189 191 195 194 196 197 199 199 195 196 194 193 197 197 197 198 197 190 178 156 133 129 125 120 111 109 107 102 101 101 105 109 114 116 117 123 132 138 141 139 138 144 144 141 140 138 139 137 135 131 122 113 107 108
130 96 102 113 47 64 166 170 161 155 223 231 184 171 156 142 165 172 161 153 180 162 146 150 166 188 179 174 200 186 173 172 173 173 172 173 180 187 188 183 184 186 188 191 193 198 198 199 199 200 202 199 199 197 198 201 202 203 203 202 200 195 179 159 149 142 135 126 121 120 115 111 110 114 119 122 122 121 125 132 137 138 137 138 141 141 140 141 138 137 135 132 127 118 106 97 99
156 95 79 85 23 104 189 211 133 136 232 207 172 169 144 120 152 171 173 163 163 161 159 159 168 196 187 183 193 172 166 166 168 172 172 173 181 188 190 188 191 193 194 196 196 200 201 202 202 203 204 204 204 201 203 205 207 207 205 206 206 203 193 183 172 160 153 144 137 135 132 127 122 123 128 131 130 128 130 134 137 136 137 140 141 140 140 140 138 135 132 128 121 110 96 90 97
156 101 70 77 176 195 196 185 163 165 218 203 176 170 150 125 149 154 166 167 156 161 173 169 172 171 173 179 158 161 164 164 167 173 175 178 184 188 192 193 197 199 198 200 201 202 202 203 205 207 207 207 208 206 206 208 210 209 209 209 209 208 202 200 195 181 173 166 159 153 151 149 141 137 138 141 140 138 139 140 142 142 143 145 143 143 143 143 139 133 131 124 114 105 92 91 100
151 112 98 161 186 203 188 181 199 178 167 184 184 177 163 153 159 144 140 153 150 154 171 168 170 159 157 164 154 161 167 167 170 176 180 183 188 192 195 198 201 202 201 201 203 205 206 206 206 209 209 210 211 211 210 211 213 213 213 214 214 212 207 207 207 200 192 183 180 175 168 168 161 153 148 151 154 150 148 148 151 152 150 150 148 148 148 149 147 137 132 122 112 102 92 94 103
140 107 111 202 207 201 207 190 201 203 173 175 177 182 179 176 168 153 145 160 151 145 156 166 176 169 162 163 161 167 171 173 175 179 185 188 193 197 201 205 207 206 205 205 207 209 209 209 210 211 212 212 213 214 213 214 216 216 216 218 219 217 213 213 212 212 207 198 196 194 187 185 180 172 166 165 167 165 161 159 161 163 161 158 156 156 158 161 158 147 138 127 112 98 90 94 101
163 107 121 230 213 194 298 155 199 237 189 167 171 184 187 189 176 170 172 172 167 175 177 175 185 184 176 171 171 174 176 180 182 185 191 194 198 203 207 210 212 213 213 213 214 214 214 213 214 214 214 215 216 216 216 217 218 220 220 220 222 222 219 218 217 218 216 211 206 205 204 201 194 189 185 180 179 182 180 177 174 175 174 172 170 169 172 174 173 165 153 143 127 105 95 95 115
173 124 164 215 186 161 327 58 13 222 180 168 169 174 195 205 185 184 168 151 228 219 203 208 211 199 184 178 180 181 183 186 189 192 196 199 203 207 213 217 220 221 220 220 220 219 219 219 218 218 217 217 218 218 219 220 220 221 222 223 225 225 224 222 221 222 221 218 214 213 213 211 208 203 198 193 190 191 193 195 192 189 188 187 187 189 191 190 190 186 174 165 162 154 151 164 197
123 125 181 165 156 154 179 123 92 177 172 167 162 163 196 194 185 195 177 165 227 225 219 226 227 214 199 190 187 187 189 191 194 197 201 204 207 211 215 219 222 223 223 225 226 225 225 224 223 222 221 221 221 221 222 223 224 224 224 225 227 227 226 226 224 225 225 222 220 220 220 218 217 215 207 201 200 200 200 203 206 205 202 201 201 202 205 204 203 202 197 189 187 193 205 216 222
119 249 170 142 165 163 162 160 150 179 174 161 164 177 183 169 188 209 200 209 227 230 231 231 232 229 217 204 195 193 195 196 199 201 204 207 210 214 217 219 222 223 225 228 230 230 229 228 228 226 225 225 225 224 223 224 226 227 226 227 229 230 228 227 227 226 227 227 225 225 226 225 223 224 217 208 205 207 209 209 212 214 213 214 214 214 215 214 214 212 210 205 205 211 218 221 224
126 171 197 130 155 149 154 165 152 173 176 166 168 178 177 173 194 216 216 227 231 227 213 212 226 228 220 211 205 205 203 202 205 207 209 212 216 219 221 224 226 226 228 230 232 232 232 232 232 231 230 230 230 228 225 225 227 229 228 228 230 231 231 230 228 228 230 231 230 228 228 229 227 229 225 218 210 209 214 216 216 218 220 222 223 224 223 221 221 221 219 215 214 219 224 224 226
119 150 179 140 131 148 148 166 157 156 167 163 167 174 184 192 210 247 235 231 223 218 207 188 205 218 220 218 216 213 209 209 210 210 212 215 219 221 224 226 227 229 230 230 231 233 232 233 234 234 233 233 234 233 230 227 228 230 230 230 230 230 232 233 230 229 232 233 233 230 229 229 229 232 231 225 218 214 216 219 222 224 226 228 228 229 228 225 225 227 228 224 220 219 223 226 227
183 148 160 154 140 150 142 165 164 157 168 164 178 196 200 204 258 269 249 239 226 221 217 208 205 212 215 217 220 218 213 212 211 212 214 215 216 219 222 224 227 230 232 232 232 234 233 233 234 235 235 235 236 236 235 231 230 231 233 234 233 232 233 234 232 229 231 234 235 233 232 231 231 234 234 229 224 221 220 223 225 227 230 232 233 234 231 228 227 230 235 236 231 225 223 224 227
164 137 136 136 137 152 145 160 159 159 175 180 193 227 270 201 154 261 253 243 225 220 217 219 223 223 215 213 217 217 216 214 214 216 216 216 217 220 220 221 226 229 231 232 232 233 233 233 233 233 234 234 235 237 238 237 234 233 236 236 235 234 233 235 235 231 230 234 236 236 235 234 233 233 233 230 229 226 225 227 229 230 233 236 237 238 236 231 228 230 233 238 241 239 233 227 228
145 131 107 63 76 155 181 156 159 161 157 185 181 190 293 95 151 249 252 246 226 220 218 221 224 226 223 218 216 215 217 217 218 220 219 222 226 228 226 226 229 229 230 232 233 233 233 233 234 234 234 234 235 237 238 239 238 237 238 238 237 237 235 235 237 236 234 234 237 238 238 238 237 236 234 230 229 229 229 232 234 234 236 238 240 239 238 234 231 232 232 233 238 241 239 232 230
135 125 100 357 11 5 232 174 172 177 151 181 151 37 286 222 225 244 249 246 243 224 219 222 223 227 227 225 223 221 222 220 220 226 231 235 239 240 239 239 238 236 236 236 235 234 234 235 235 234 234 235 236 237 238 239 239 239 239 240 240 238 237 236 236 237 236 235 237 239 240 241 241 241 241 238 233 232 233 235 237 238 238 239 240 239 238 236 234 235 235 236 236 239 242 238 233
131 104 101 31 13 343 251 177 178 179 161 183 145 259 271 250 237 239 247 260 252 227 218 220 223 229 230 229 229 230 231 229 230 235 241 242 243 244 246 246 243 243 243 238 236 235 235 235 235 236 235 236 237 238 239 239 239 239 239 240 240 239 239 237 237 236 236 234 235 238 240 242 242 242 244 245 243 239 236 237 239 241 241 240 239 238 238 237 237 239 240 240 238 238 241 241 237
120 78 68 66 92 282 289 163 161 157 194 196 132 179 258 275 263 254 259 256 241 227 221 219 224 228 231 233 234 238 240 239 242 244 244 246 245 245 247 246 243 243 242 239 239 238 236 236 236 237 237 238 238 238 239 240 240 240 240 240 241 241 240 238 238 237 237 234 231 234 238 240 241 242 243 244 246 246 242 240 240 241 244 244 242 241 240 239 239 241 244 243 240 240 241 241 239
45 103 313 350 148 261 308 226 172 162 201 183 118 191 262 280 287 313 292 240 218 226 229 222 225 227 231 236 239 245 248 247 249 248 246 246 245 245 245 244 243 242 242 241 241 239 238 238 238 239 239 240 240 240 241 242 242 241 241 242 243 244 243 242 240 239 239 236 231 231 234 238 239 240 241 242 244 247 246 245 244 242 245 247 246 243 241 242 242 242 243 244 244 244 244 243 240
0 102 200 275 158 262 313 265 211 181 164 173 132 210 265 284 262 37 37 202 206 226 235 229 230 232 235 240 245 249 252 252 250 249 248 245 244 244 243 242 243 243 244 243 241 240 240 240 240 241 241 241 242 243 243 244 244 243 243 243 243 244 245 246 245 244 241 238 234 232 232 235 239 240 240 241 243 245 247 248 246 242 243 246 250 249 246 245 244 243 242 242 245 245 246 245 243
292 44 167 226 177 186 278 279 273 129 138 243 124 205 249 267 266 275 308 242 227 237 241 238 235 238 243 247 251 254 256 256 253 250 249 248 249 248 246 245 245 245 245 245 244 243 243 244 244 245 244 244 244 244 245 246 246 245 245 246 245 244 245 247 248 247 245 241 238 237 235 231 234 238 239 241 242 244 246 246 245 243 241 243 246 250 252 250 246 244 241 238 241 243 245 246 246
190 186 164 228 201 195 236 241 260 52 96 231 176 238 257 264 276 275 270 268 266 260 257 256 253 253 255 255 257 259 259 260 259 257 255 254 256 255 251 251 251 250 247 245 245 244 244 244 245 246 246 246 245 245 245 246 246 245 245 245 246 245 245 245 246 247 246 244 241 241 239 233 230 232 235 239 242 244 245 245 246 242 240 242 242 245 252 251 246 244 240 235 235 239 243 246 247
169 174 148 160 182 227 242 243 261 171 126 244 224 231 258 265 276 274 270 271 269 265 265 264 263 262 261 260 260 260 259 261 264 264 261 258 259 257 256 258 261 259 253 248 245 243 243 243 244 245 245 246 246 245 244 243 242 242 242 241 243 244 245 244 245 246 246 246 244 242 241 237 234 233 235 237 240 244 243 245 247 237 234 241 240 244 250 249 248 248 243 235 232 233 235 239 242
136 126 112 146 168 232 252 261 288 148 151 257 243 240 262 264 267 268 270 276 271 259 259 259 260 261 260 260 261 260 259 261 266 266 264 261 259 258 257 259 260 259 255 250 245 243 242 241 243 243 244 245 244 244 243 242 241 240 241 243 244 245 245 245 245 246 247 248 248 245 242 240 237 237 239 238 240 243 242 244 245 235 232 238 241 248 250 247 251 252 245 236 232 233 234 235 236
94 119 121 128 170 228 252 255 292 18 143 269 324 308 271 258 262 266 266 269 259 249 245 249 254 256 258 259 260 261 260 262 264 265 264 263 261 260 259 259 257 256 254 252 250 246 243 242 243 243 244 244 244 246 245 245 245 245 247 250 251 249 247 248 248 249 250 250 250 249 248 245 241 240 241 240 240 242 242 241 241 238 240 244 246 249 244 240 249 252 246 237 231 232 237 238 237
81 111 123 140 211 247 292 305 314 11 114 272 343 333 279 263 256 260 256 246 251 253 247 250 256 258 260 261 262 263 264 265 265 264 264 265 265 264 262 261 259 257 255 253 252 250 247 245 244 243 243 242 243 245 245 247 248 248 249 250 250 250 250 250 250 251 251 251 252 253 254 252 249 246 243 242 241 242 242 241 240 241 246 249 249 248 241 237 245 250 245 237 231 230 234 238 238
88 109 128 206 250 189 274 300 313 355 58 271 324 312 283 282 273 266 261 249 256 263 258 256 257 257 261 262 264 266 266 267 268 268 268 268 267 266 264 263 261 257 254 251 250 250 250 249 248 247 245 244 244 245 246 248 248 247 247 247 248 248 250 250 250 250 250 251 252 253 254 254 252 250 246 243 242 243 243 239 239 245 250 248 247 248 243 236 243 252 245 235 233 232 233 238 238
34 131 143 185 214 169 195 293 324 353 14 12 0 324 291 314 333 292 283 262 259 264 260 258 256 255 259 261 262 261 261 264 269 272 274 273 270 268 266 264 262 259 255 253 252 252 254 255 254 253 252 251 250 250 251 250 249 248 246 246 246 246 247 248 247 248 249 249 250 251 252 251 251 250 246 240 237 239 240 239 243 254 253 243 242 249 243 237 244 256 248 238 237 239 241 244 240
310 220 171 170 167 157 173 0 33 32 351 336 28 3 291 310 317 276 297 334 293 280 270 265 264 257 251 251 256 258 259 264 270 274 278 278 276 272 265 260 258 257 257 256 256 256 257 258 258 257 257 256 256 255 254 253 251 250 248 247 247 247 247 247 248 249 250 250 251 251 251 251 250 250 248 244 239 238 240 242 245 252 248 239 240 244 240 238 246 254 251 244 243 244 246 245 243
237 232 168 150 131 122 129 88 62 83 259 303 58 102 268 296 284 258 284 335 307 293 281 270 269 265 255 252 257 261 265 268 271 276 280 282 281 276 268 262 258 257 258 256 255 255 256 257 257 257 257 257 256 256 255 255 254 252 251 250 251 251 252 253 254 254 255 255 255 255 255 254 253 252 251 248 245 242 239 240 244 246 243 239 239 239 239 243 247 251 253 250 248 245 244 246 249
228 226 134 128 120 127 138 108 97 209 242 323 16 112 234 288 268 242 261 320 298 290 284 280 280 278 271 266 266 267 268 271 275 280 284 285 286 284 278 270 265 262 259 255 252 254 256 257 258 257 257 257 255 255 255 255 255 254 254 253 254 254 255 257 258 258 259 259 258 258 258 257 256 255 254 252 250 247 241 239 242 244 244 244 246 247 250 251 247 247 250 250 247 242 244 252 254
241 195 126 130 130 132 123 101 102 4 10 316 311 132 200 274 269 279 355 309 291 287 283 288 301 305 292 277 275 272 264 266 274 280 280 282 291 301 294 278 267 260 255 253 253 254 256 257 258 257 256 256 255 255 255 254 255 255 255 255 255 256 257 259 259 259 259 259 258 258 258 257 256 255 255 253 252 250 247 244 240 239 240 243 249 251 253 253 248 246 249 250 244 239 244 255 255
171 135 97 76 73 83 80 92 105 39 6 256 243 188 195 270 279 307 352 278 259 276 284 291 315 341 40 88 93 92 83 81 279 284 274 281 321 333 312 288 263 253 248 248 248 248 250 252 253 255 254 255 256 256 256 256 256 256 256 256 256 257 258 259 259 259 258 258 258 257 256 256 255 254 253 253 252 250 250 248 243 239 238 239 244 247 249 250 249 249 252 251 245 242 249 255 257
128 101 68 52 31 34 42 54 84 60 290 254 237 211 171 268 281 268 218 225 225 260 297 304 342 43 80 87 89 89 70 54 12 322 292 294 315 315 305 296 272 253 243 239 239 240 244 247 249 253 255 256 258 259 259 259 259 259 258 258 258 259 259 259 259 259 259 259 259 259 259 258 257 256 254 253 253 252 251 251 246 240 238 240 241 242 244 245 246 252 252 247 243 246 254 257 257
107 83 79 73 355 6 18 1 42 141 256 262 255 212 147 218 263 256 235 252 239 226 258 280 350 59 81 82 80 68 35 16 3 342 314 309 319 320 307 290 285 281 266 248 239 238 241 246 250 255 258 262 264 264 264 263 261 260 259 259 259 259 259 259 259 260 261 261 262 262 261 259 258 257 255 253 253 252 252 250 244 237 236 240 239 239 243 244 248 253 249 243 245 251 255 257 255
79 91 99 90 344 5 346 299 281 223 244 269 270 190 183 225 248 259 262 264 242 222 216 219 49 71 68 59 64 36 9 359 355 343 326 330 339 345 292 266 282 295 292 269 250 248 251 256 260 264 268 271 271 268 266 264 262 261 260 260 261 260 260 259 260 262 263 264 265 264 262 261 260 257 255 253 253 253 253 250 241 232 231 235 235 238 243 243 245 248 247 247 254 258 259 257 254
131 137 133 132 132 125 261 260 275 262 256 289 285 245 261 272 266 248 250 255 230 224 236 290 331 348 354 332 163 11 358 357 359 352 341 344 350 345 319 297 297 300 296 282 269 265 267 269 272 277 282 280 276 272 269 265 263 262 262 261 261 261 261 261 263 265 265 267 267 266 267 266 265 263 261 259 258 257 256 253 244 234 231 232 234 237 241 241 241 244 248 253 256 259 260 257 253
179 154 136 151 159 163 213 216 209 245 271 300 290 249 207 224 296 259 256 274 273 248 264 285 281 265 271 235 219 337 2 20 24 22 19 10 8 356 340 329 318 311 302 291 283 279 279 281 283 285 287 285 280 274 270 268 266 264 262 261 261 261 262 263 264 265 265 267 268 268 269 270 271 272 269 266 262 259 257 253 247 239 233 232 232 234 237 240 242 244 248 253 256 257 257 255 252
230 114 111 177 188 150 141 191 180 180 292 299 255 232 215 212 277 278 274 283 274 249 259 260 251 246 245 242 246 2 31 37 34 57 68 56 44 25 3 349 331 321 312 302 297 293 291 290 288 285 284 281 276 272 271 269 265 262 259 258 259 259 259 259 260 263 264 267 269 270 271 272 274 275 273 269 264 260 257 252 247 242 237 234 234 234 236 240 243 245 247 251 253 253 253 252 252
176 136 183 218 176 119 110 240 3 78 246 268 206 246 293 329 287 285 290 291 293 285 272 265 257 239 219 217 117 77 43 30 41 71 74 67 61 49 39 17 346 335 327 320 315 306 301 297 291 285 280 275 271 270 270 268 262 257 255 254 253 252 253 257 261 264 266 267 268 270 272 273 274 275 274 271 267 262 258 252 246 243 239 236 236 237 239 240 241 242 244 248 250 249 250 252 254
131 182 209 198 90 84 107 205 349 40 250 274 235 236 281 303 273 315 2 257 270 281 283 296 308 349 92 98 85 67 39 44 60 63 57 53 50 46 44 30 6 354 343 334 324 308 307 311 304 295 286 278 272 269 265 261 258 252 249 249 249 251 254 258 262 264 265 267 270 273 275 276 276 277 276 274 271 267 260 253 244 240 239 237 237 239 239 238 238 239 242 247 248 248 251 254 256
135 182 174 120 125 205 108 156 201 164 240 277 287 262 252 213 227 311 346 207 213 243 291 316 305 328 67 72 69 59 52 60 58 50 49 46 43 41 35 22 9 2 353 346 335 314 307 317 324 324 313 292 272 263 257 251 247 245 245 246 248 252 256 258 262 265 267 270 275 278 278 278 278 277 276 275 274 270 264 255 245 239 237 236 238 240 239 237 238 240 242 246 248 249 252 254 254
71 100 116 100 140 168 163 162 165 171 207 260 304 310 265 224 205 177 193 208 191 188 281 294 241 188 70 59 64 60 52 49 39 32 31 29 30 25 14 359 349 346 344 344 341 332 328 331 337 339 333 316 285 262 253 250 246 245 246 247 249 253 256 260 264 266 269 273 277 278 279 280 280 278 276 275 273 272 267 259 250 242 239 238 236 236 237 238 240 241 241 245 247 249 253 254 254
143 158 173 179 103 114 166 179 128 141 171 205 269 286 269 247 200 169 184 214 203 156 139 160 169 138 69 57 62 51 37 29 21 15 9 6 4 359 351 340 331 327 329 334 336 335 336 337 336 335 333 328 309 276 255 250 251 249 247 248 250 253 256 260 263 265 267 271 274 277 279 279 279 278 277 275 273 271 269 263 254 246 241 240 238 235 236 239 241 240 239 243 245 246 250 251 251
169 181 193 184 161 129 155 230 255 134 165 182 192 269 269 235 196 185 185 210 203 161 157 162 110 78 61 59 54 38 27 18 8 359 352 347 341 334 327 318 312 314 319 324 326 327 328 328 328 326 325 326 320 297 268 254 252 249 246 248 249 250 254 257 259 262 265 269 271 275 277 278 278 278 277 276 274 271 269 264 257 249 242 237 238 238 236 237 237 237 238 241 243 244 246 247 248